Location: Unspecified
(0.0000°N, 0.0000°E)
Time: 17:33:33
(UTC+00:00)

Snapshot - Visible Passes

Search period start: 17 October 2019 00:00
Search period end: 27 October 2019 00:00
Orbit: 1271 x 1318 km, 90.3° (Epoch: 17 October)

Date Brightness Start Highest point End Pass type
(mag) Time Alt. Az. Time Alt. Az. Time Alt. Az.
17 Oct 5.1 18:34:49 10° S 18:42:42 80° E 18:50:29 10° N visible
18 Oct 5.2 18:44:45 10° S 18:52:36 80° W 19:00:25 10° N visible
19 Oct 8.4 05:05:13 10° E 05:06:37 11° E 05:08:02 10° ESE visible
19 Oct 5.6 18:54:48 10° S 19:02:31 62° W 19:10:12 10° NNW visible
20 Oct 8.1 05:12:20 10° ENE 05:16:31 16° E 05:20:42 10° SE visible
20 Oct 6.1 19:05:01 10° SSW 19:12:26 47° W 19:19:48 10° NNW visible
21 Oct 7.8 05:20:55 10° NE 05:26:24 22° E 05:31:55 10° SE visible
21 Oct 6.6 19:15:24 10° SSW 19:22:21 35° W 19:29:16 10° NNW visible
22 Oct 7.1 19:25:59 10° SSW 19:32:15 27° W 19:38:30 10° NW visible
23 Oct 7.5 19:36:53 10° SW 19:42:09 20° W 19:47:25 10° NW visible
24 Oct 5.2 17:53:35 10° SSE 18:01:17 60° E 18:08:53 10° N visible
24 Oct 7.8 19:48:21 10° SW 19:52:03 14° W 19:55:44 10° WNW visible
25 Oct 5.1 18:03:21 10° S 18:11:12 79° E 18:18:57 10° N visible
26 Oct 5.3 18:13:16 10° S 18:21:07 81° W 18:28:53 10° N visible
